Albany, NY

1:29 PM EDT on June 24, 2018 (GMT -0400)
Albany International

Weather History for KALB - August, 2006

Change the Weather History Date:

Wednesday, August 2, 2006

  Actual Average Record
Temperature  
Mean Temperature 85 °F 72 °F  
Max Temperature 95 °F 82 °F 97 °F (1975)
Min Temperature 74 °F 61 °F 45 °F (1976)
Degree Days  
Heating Degree Days 0 0  
Month to date heating degree days 0 0  
Since 1 June heating degree days 57  
Since 1 July heating degree days 0 5  
Cooling Degree Days 20 7  
Month to date cooling degree days 40 14  
Year to date cooling degree days 521 380  
Since 1 June cooling degree days 350  
Growing Degree Days 34 (Base 50)    
Moisture  
Dew Point 72 °F    
Average Humidity 70    
Maximum Humidity 87    
Minimum Humidity 52    
Precipitation  
Precipitation 0.06 in 0.13 in 1.55 in (1973)
Month to date precipitation 0.06 0.26  
Year to date precipitation 28.76 22.95  
Sea Level Pressure  
Sea Level Pressure 29.79 in    
Wind  
Wind Speed 5 mph (WSW)    
Max Wind Speed 22 mph    
Max Gust Speed 30 mph    
Visibility 10 miles    
Events Rain    
T = Trace of Precipitation, MM = Missing Value Source: NWS Daily Summary

Daily Weather History Graph

Daily Weather History Graph

Search for Another Location

Airport or City:

Astronomy

Aug. 02, 2006 Rise Set
Actual Time 5:47 AM EDT 8:14 PM EDT
Civil Twilight 5:15 AM EDT 8:46 PM EDT
Nautical Twilight 4:35 AM EDT 9:26 PM EDT
Astronomical Twilight 3:51 AM EDT 10:10 PM EDT
Moon 2:13 PM EDT (8/2) 11:46 PM EDT (8/2)
Length of Visible Light 15h 30m
Length of Day
14h 26m
First Quarter, 53% of the Moon is Illuminated
Aug 2
First Quarter
Aug 9
Full
Aug 15
Last Quarter
Aug 23
New
Aug 31
First Quarter

Hourly Weather History & Observations

Time (EDT) Temp. Heat Index Dew Point Humidity Pressure Visibility Wind Dir Wind Speed Gust Speed Precip Events Conditions
12:51 AM 77.0 °F - 71.1 °F 82% 29.82 in 10.0 mi South 3.5 mph - N/A   Clear
1:51 AM 78.1 °F - 70.0 °F 76% 29.82 in 10.0 mi Calm Calm - N/A   Clear
2:51 AM 79.0 °F - 70.0 °F 74% 29.82 in 10.0 mi South 3.5 mph - N/A   Clear
3:51 AM 78.1 °F - 69.1 °F 74% 29.82 in 10.0 mi SW 6.9 mph - N/A   Clear
4:51 AM 77.0 °F - 69.1 °F 76% 29.81 in 10.0 mi Calm Calm - N/A   Clear
5:51 AM 75.0 °F - 69.1 °F 82% 29.82 in 10.0 mi SSE 3.5 mph - N/A   Clear
6:51 AM 77.0 °F - 72.0 °F 84% 29.82 in 10.0 mi Calm Calm - N/A   Clear
7:51 AM 82.9 °F 88.8 °F 73.0 °F 72% 29.83 in 10.0 mi SW 6.9 mph - N/A   Partly Cloudy
8:51 AM 86.0 °F 93.8 °F 73.9 °F 67% 29.83 in 10.0 mi WNW 5.8 mph - N/A   Partly Cloudy
9:51 AM 88.0 °F 97.5 °F 75.0 °F 65% 29.83 in 10.0 mi WNW 6.9 mph - N/A   Partly Cloudy
10:51 AM 90.0 °F 101.3 °F 75.9 °F 63% 29.82 in 10.0 mi West 9.2 mph - N/A   Partly Cloudy
11:51 AM 91.0 °F 102.9 °F 75.9 °F 61% 29.82 in 10.0 mi WNW 8.1 mph - N/A   Partly Cloudy
12:51 PM 91.9 °F 103.9 °F 75.9 °F 59% 29.81 in 10.0 mi NW 6.9 mph - N/A   Scattered Clouds
1:51 PM 93.0 °F 103.2 °F 73.9 °F 54% 29.78 in 10.0 mi WNW 6.9 mph - N/A   Clear
2:41 PM 82.4 °F 89.5 °F 75.2 °F 79% 29.78 in 7.0 mi SW 12.7 mph - 0.06 in Rain Rain
2:51 PM 82.9 °F 90.8 °F 75.9 °F 79% 29.77 in 10.0 mi West 6.9 mph - 0.06 in   Scattered Clouds
3:51 PM 91.0 °F 100.4 °F 73.9 °F 57% 29.77 in 10.0 mi WNW 12.7 mph - N/A   Clear
4:47 PM 80.6 °F 83.9 °F 69.8 °F 70% 29.78 in 10.0 mi WNW 9.2 mph - 0.00 in Rain Light Rain
4:51 PM 81.0 °F 84.4 °F 70.0 °F 69% 29.78 in 10.0 mi WNW 8.1 mph - 0.00 in Rain Light Rain
5:51 PM 81.0 °F 84.9 °F 71.1 °F 72% 29.75 in 10.0 mi NW 8.1 mph - 0.00 in   Clear
6:51 PM 80.1 °F 83.6 °F 71.1 °F 74% 29.76 in 10.0 mi Calm Calm - N/A   Clear
7:51 PM 80.1 °F 83.6 °F 71.1 °F 74% 29.74 in 10.0 mi Calm Calm - N/A   Clear
8:51 PM 77.0 °F - 71.1 °F 82% 29.73 in 10.0 mi SSE 3.5 mph - N/A   Clear
9:51 PM 77.0 °F - 71.1 °F 82% 29.75 in 10.0 mi Calm Calm - N/A   Clear
10:51 PM 75.9 °F - 72.0 °F 87% 29.75 in 10.0 mi Calm Calm - N/A   Clear
11:51 PM 75.9 °F - 71.1 °F 85% 29.73 in 10.0 mi SSW 4.6 mph - N/A   Clear